TimeCST,TemperatureF,Dew PointF,Humidity,Sea Level PressureIn,VisibilityMPH,Wind Direction,Wind SpeedMPH,Gust SpeedMPH,PrecipitationIn,Events,Conditions,WindDirDegrees,DateUTC
12:52 AM,52.0,33.1,49,29.96,10.0,South,15.0,-,N/A,,Clear,170,2011-12-01 06:52:00
1:52 AM,50.0,33.1,52,29.95,10.0,South,16.1,23.0,N/A,,Clear,180,2011-12-01 07:52:00
2:52 AM,50.0,32.0,50,29.93,10.0,South,17.3,24.2,N/A,,Clear,170,2011-12-01 08:52:00
3:52 AM,48.9,30.9,50,29.94,10.0,South,11.5,-,N/A,,Clear,170,2011-12-01 09:52:00
4:52 AM,46.0,30.9,56,29.94,10.0,SSE,17.3,-,N/A,,Clear,160,2011-12-01 10:52:00
5:52 AM,45.0,30.9,58,29.97,10.0,SSE,13.8,-,N/A,,Clear,160,2011-12-01 11:52:00
6:52 AM,46.9,30.9,54,29.99,10.0,South,16.1,-,N/A,,Clear,170,2011-12-01 12:52:00
7:52 AM,48.0,30.9,52,29.99,10.0,South,18.4,-,N/A,,Clear,170,2011-12-01 13:52:00
8:52 AM,52.0,34.0,50,30.01,10.0,South,17.3,23.0,N/A,,Clear,170,2011-12-01 14:52:00
9:52 AM,54.0,41.0,62,30.04,10.0,South,18.4,24.2,N/A,,Mostly Cloudy,180,2011-12-01 15:52:00
10:52 AM,55.9,45.0,67,30.09,10.0,SW,4.6,-,N/A,,Overcast,230,2011-12-01 16:52:00
11:52 AM,57.9,46.0,65,30.08,10.0,SW,6.9,-,N/A,,Overcast,230,2011-12-01 17:52:00
12:52 PM,57.9,48.0,70,30.08,10.0,WSW,4.6,-,N/A,,Overcast,240,2011-12-01 18:52:00
1:42 PM,60.8,48.2,63,30.09,10.0,WNW,4.6,-,N/A,,Overcast,300,2011-12-01 19:42:00
1:52 PM,60.1,48.0,64,30.07,10.0,NNW,6.9,-,N/A,,Overcast,340,2011-12-01 19:52:00
2:52 PM,60.1,48.0,64,30.08,10.0,NNE,3.5,-,N/A,,Overcast,20,2011-12-01 20:52:00
3:52 PM,61.0,48.0,62,30.10,10.0,NE,5.8,-,N/A,,Overcast,50,2011-12-01 21:52:00
4:52 PM,59.0,44.1,58,30.12,10.0,NNE,9.2,-,N/A,,Overcast,20,2011-12-01 22:52:00
5:52 PM,57.9,44.1,60,30.16,10.0,North,10.4,-,N/A,,Overcast,10,2011-12-01 23:52:00
6:52 PM,57.0,39.0,51,30.20,10.0,North,15.0,19.6,N/A,,Overcast,10,2011-12-02 00:52:00
7:52 PM,53.1,34.0,48,30.24,10.0,North,18.4,27.6,N/A,,Overcast,10,2011-12-02 01:52:00
8:02 PM,51.8,33.8,50,30.26,10.0,North,16.1,24.2,N/A,,Overcast,10,2011-12-02 02:02:00
8:52 PM,50.0,33.1,52,30.27,10.0,North,19.6,25.3,N/A,,Overcast,10,2011-12-02 02:52:00
9:52 PM,48.0,34.0,58,30.30,10.0,North,17.3,-,N/A,,Overcast,360,2011-12-02 03:52:00
10:52 PM,46.0,33.1,61,30.33,10.0,North,18.4,25.3,0.00,Rain,Light Rain,360,2011-12-02 04:52:00
11:24 PM,44.6,32.0,61,30.36,10.0,North,17.3,25.3,0.00,,Overcast,360,2011-12-02 05:24:00
11:52 PM,44.1,32.0,63,30.36,10.0,North,16.1,-,0.00,Rain,Light Rain,360,2011-12-02 05:52:00